Location: Newark
(52.2090°N, 4.1550°W)
Time: 13:37:24
(UTC+00:00)

Transit 2A - Pass Details

Date: 24 October 2019
Orbit: 601 x 957 km, 66.7° (Epoch: 21 November)

Event Time Altitude Azimuth Distance (km) Brightness Sun altitude
Rises 21:31:40 0° 275° (W) 3,160 9.8 -39.8°
Reaches altitude 10° 21:34:48 10° 293° (WNW) 2,170 9.0 -40.1°
Enters shadow 21:35:55 14° 304° (NW) 1,893 8.6 -40.3°
